Hourly Data Report for October 02, 2017

All times are specified in Local Standard Time (LST). Add 1 hour to adjust for Daylight Saving Time where and when it is observed.

WINDSOR A
ONTARIO

42°16'34.000" N
82°57'19.000" W
189.60 m
6139527
71538
YQG

Download Data

Hourly Data (October 2017)
Hourly Data Report for October 2, 2017
Temp Definition
°C
Dew Point Temp Definition
°C
Rel Hum Definition
%
Wind Dir Definition
10's deg

Wind Spd Definition
km/h
Visibility Definition
km
Stn Press Definition
kPa
Hmdx Definition


Wind Chill Definition


Weather Definition


TIME
00:00 Legend Double Dagger 8.4 6.8 90 6 6 24.1 100.16     LegendNANA
01:00 Legend Double Dagger 8.8 7.4 91 11 4 24.1 100.16     Mainly Clear
02:00 Legend Double Dagger 8.1 7.4 95 11 8 24.1 100.15     LegendNANA
03:00 Legend Double Dagger 9.1 8.3 95 36 3 24.1 100.15     LegendNANA
04:00 Legend Double Dagger 8.2 7.8 97 36 2 24.1 100.19     Clear
05:00 Legend Double Dagger 8.0 7.7 98 36 2 24.1 100.24     LegendNANA
06:00 Legend Double Dagger 8.8 8.3 97 36 2 24.1 100.32     LegendNANA
07:00 Legend Double Dagger 7.0 6.5 96 36 3 19.3 100.35     Mainly Clear
08:00 Legend Double Dagger 11.6 10.5 93 36 2 19.3 100.39     LegendNANA
09:00 Legend Double Dagger 17.7 11.5 67 13 9 19.3 100.42     LegendNANA
10:00 Legend Double Dagger 19.9 9.3 50 15 8 24.1 100.48     Mostly Cloudy
11:00 Legend Double Dagger 21.0 7.8 42 9 4 24.1 100.44     LegendNANA
12:00 Legend Double Dagger 22.6 7.1 36 14 14 24.1 100.44     LegendNANA
13:00 Legend Double Dagger 23.3 7.1 35 12 7 24.1 100.39     Mostly Cloudy
14:00 Legend Double Dagger 23.8 5.2 30 12 10 24.1 100.32     LegendNANA
15:00 Legend Double Dagger 23.6 5.1 30 13 15 24.1 100.28     LegendNANA
16:00 Legend Double Dagger 22.3 6.8 36 16 20 24.1 100.27     Mostly Cloudy
17:00 Legend Double Dagger 22.1 5.0 33 13 13 24.1 100.31     LegendNANA
18:00 Legend Double Dagger 18.7 7.0 46 14 12 24.1 100.36     LegendNANA
19:00 Legend Double Dagger 14.3 9.8 74 12 11 24.1 100.40     Mainly Clear
20:00 Legend Double Dagger 13.9 10.7 80 11 5 24.1 100.42     LegendNANA
21:00 Legend Double Dagger 13.2 10.7 85 13 4 24.1 100.44     LegendNANA
22:00 Legend Double Dagger 12.4 10.9 90 12 6 24.1 100.44     Mainly Clear
23:00 Legend Double Dagger 12.3 10.8 91 17 4 24.1 100.42     LegendNANA

Notes on Data Quality.

Legend

  • E = Estimated
  • M = Missing
  • NA = Not Available
  • ‡ = Partner data that is not subject to review by the National Climate Archives
Date modified: